When you browse on this site, cookies collect data to enhance your experience and personalize the content and advertising you see.
Visit our Privacy Policy to learn more. By continuing to use the site, you agree to this use of cookies and data.
  • în România
  • Lista ţărilor
  • Pe 7 zile
  • Temperatura apei
  • Meteo pe hartă
  • Widget-uri
  • user-avatar
    Intrare

    Meteo pe oră la Aracaju

    Astăzi, 5 Iunie, Vineri

    Timp Temperatura Precipitaţii Vânt Presiune Umiditate
    00:00 +26°C° 0.1 mm 4 m/s 761 mmHg 87%
    01:00 +26°C° 0.1 mm 3 m/s 761 mmHg 86%
    02:00 +26°C° 0.3 mm 4 m/s 761 mmHg 86%
    03:00 +26°C° 0.3 mm 4 m/s 761 mmHg 87%
    04:00 +26°C° 0 mm 4 m/s 760 mmHg 87%
    05:00 +26°C° 0.2 mm 4 m/s 760 mmHg 87%
    06:00 +26°C° 0.2 mm 3 m/s 761 mmHg 87%
    07:00 +26°C° 0.2 mm 3 m/s 761 mmHg 87%
    08:00 +27°C° 0.5 mm 4 m/s 761 mmHg 84%
    09:00 +28°C° 0.5 mm 4 m/s 762 mmHg 82%
    10:00 +29°C° 0.5 mm 5 m/s 762 mmHg 79%
    11:00 +29°C° 0.1 mm 5 m/s 762 mmHg 76%
    12:00 +30°C° 0.1 mm 5 m/s 762 mmHg 72%
    13:00 +30°C° 0.1 mm 5 m/s 761 mmHg 68%
    14:00 +30°C° 0 mm 4 m/s 761 mmHg 69%
    15:00 +30°C° 0 mm 4 m/s 761 mmHg 71%
    16:00 +30°C° 0 mm 4 m/s 760 mmHg 72%
    17:00 +29°C° 0.1 mm 4 m/s 761 mmHg 76%
    18:00 +28°C° 0.1 mm 4 m/s 761 mmHg 80%
    19:00 +27°C° 0.1 mm 4 m/s 761 mmHg 84%
    20:00 +27°C° 0.1 mm 4 m/s 761 mmHg 84%
    21:00 +27°C° 0.1 mm 4 m/s 762 mmHg 85%
    22:00 +27°C° 0.1 mm 4 m/s 762 mmHg 86%
    23:00 +26°C° 0.2 mm 4 m/s 762 mmHg 86%

    Mâine, 6 Iunie, Sâmbătă

    Timp Temperatura Precipitaţii Vânt Presiune Umiditate
    00:00 +26°C° 0.2 mm 4 m/s 762 mmHg 86%
    01:00 +26°C° 0.2 mm 4 m/s 762 mmHg 85%
    02:00 +26°C° 0.1 mm 4 m/s 761 mmHg 86%
    03:00 +26°C° 0.1 mm 4 m/s 761 mmHg 86%
    04:00 +26°C° 0.1 mm 4 m/s 761 mmHg 86%
    05:00 +26°C° 0 mm 3 m/s 761 mmHg 86%
    06:00 +26°C° 0 mm 3 m/s 761 mmHg 85%
    07:00 +26°C° 0 mm 3 m/s 761 mmHg 85%
    08:00 +27°C° 0 mm 3 m/s 761 mmHg 81%
    09:00 +28°C° 0 mm 4 m/s 762 mmHg 77%
    10:00 +29°C° 0 mm 4 m/s 762 mmHg 74%
    11:00 +29°C° 0.1 mm 4 m/s 762 mmHg 73%
    12:00 +30°C° 0.1 mm 4 m/s 761 mmHg 73%
    13:00 +30°C° 0.1 mm 5 m/s 761 mmHg 72%
    14:00 +29°C° 0.2 mm 5 m/s 760 mmHg 74%
    15:00 +29°C° 0.2 mm 5 m/s 760 mmHg 75%
    16:00 +29°C° 0.2 mm 5 m/s 760 mmHg 77%
    17:00 +28°C° 0.2 mm 5 m/s 760 mmHg 80%
    18:00 +27°C° 0.2 mm 5 m/s 760 mmHg 83%
    19:00 +27°C° 0.2 mm 4 m/s 761 mmHg 85%
    20:00 +26°C° 0.3 mm 4 m/s 761 mmHg 86%
    21:00 +26°C° 0.3 mm 4 m/s 761 mmHg 86%
    22:00 +26°C° 0.3 mm 4 m/s 762 mmHg 87%
    23:00 +26°C° 0.9 mm 4 m/s 762 mmHg 87%

    Poimâine, 7 Iunie, Duminică

    Timp Temperatura Precipitaţii Vânt Presiune Umiditate
    00:00 +26°C° 0.9 mm 4 m/s 761 mmHg 87%
    01:00 +26°C° 0.9 mm 4 m/s 761 mmHg 87%
    02:00 +26°C° 0.1 mm 3 m/s 761 mmHg 87%
    03:00 +26°C° 0.1 mm 3 m/s 761 mmHg 87%
    04:00 +26°C° 0.1 mm 2 m/s 761 mmHg 87%
    05:00 +25°C° 0 mm 3 m/s 761 mmHg 88%
    06:00 +25°C° 0 mm 3 m/s 761 mmHg 88%
    07:00 +25°C° 0 mm 3 m/s 761 mmHg 88%
    08:00 +26°C° 0.2 mm 3 m/s 761 mmHg 84%
    09:00 +28°C° 0.2 mm 3 m/s 762 mmHg 81%
    10:00 +29°C° 0.2 mm 4 m/s 762 mmHg 77%
    11:00 +29°C° 0.1 mm 4 m/s 762 mmHg 75%
    12:00 +30°C° 0.1 mm 4 m/s 761 mmHg 72%
    13:00 +30°C° 0.1 mm 4 m/s 761 mmHg 70%
    14:00 +30°C° 0 mm 4 m/s 761 mmHg 71%
    15:00 +29°C° 0 mm 4 m/s 760 mmHg 72%
    16:00 +29°C° 0 mm 4 m/s 760 mmHg 72%
    17:00 +28°C° 0.3 mm 4 m/s 760 mmHg 77%
    18:00 +27°C° 0.3 mm 3 m/s 760 mmHg 81%
    19:00 +26°C° 0.3 mm 3 m/s 761 mmHg 85%
    20:00 +26°C° 0.3 mm 3 m/s 761 mmHg 85%
    21:00 +26°C° 0.3 mm 3 m/s 761 mmHg 86%
    22:00 +26°C° 0.3 mm 3 m/s 762 mmHg 87%
    23:00 +26°C° 0.4 mm 3 m/s 762 mmHg 87%

    8 Iunie, Luni

    Timp Temperatura Precipitaţii Vânt Presiune Umiditate
    00:00 +26°C° 0.4 mm 3 m/s 761 mmHg 87%
    01:00 +26°C° 0.4 mm 3 m/s 761 mmHg 87%
    02:00 +26°C° 0.7 mm 2 m/s 761 mmHg 88%
    03:00 +25°C° 0.7 mm 2 m/s 760 mmHg 88%
    04:00 +25°C° 0.7 mm 2 m/s 760 mmHg 89%
    05:00 +25°C° 0.4 mm 2 m/s 760 mmHg 89%
    06:00 +25°C° 0.4 mm 2 m/s 760 mmHg 90%
    07:00 +25°C° 0.4 mm 2 m/s 761 mmHg 90%
    08:00 +26°C° 0.3 mm 2 m/s 761 mmHg 87%
    09:00 +27°C° 0.3 mm 2 m/s 761 mmHg 85%
    10:00 +28°C° 0.3 mm 2 m/s 762 mmHg 82%
    11:00 +28°C° 0.9 mm 2 m/s 761 mmHg 80%
    12:00 +29°C° 0.9 mm 3 m/s 761 mmHg 79%
    13:00 +29°C° 0.9 mm 3 m/s 760 mmHg 77%
    14:00 +29°C° 0.6 mm 3 m/s 760 mmHg 78%
    15:00 +29°C° 0.6 mm 4 m/s 759 mmHg 78%
    16:00 +29°C° 0.6 mm 4 m/s 759 mmHg 79%
    17:00 +28°C° 0.2 mm 3 m/s 759 mmHg 81%
    18:00 +27°C° 0.2 mm 3 m/s 759 mmHg 82%
    19:00 +26°C° 0.2 mm 3 m/s 760 mmHg 84%
    20:00 +26°C° 0 mm 3 m/s 760 mmHg 84%
    21:00 +26°C° 0 mm 3 m/s 760 mmHg 85%
    22:00 +26°C° 0 mm 2 m/s 760 mmHg 85%
    23:00 +26°C° 0.1 mm 2 m/s 760 mmHg 86%

    9 Iunie, Marţi

    Timp Temperatura Precipitaţii Vânt Presiune Umiditate
    00:00 +25°C° 0.1 mm 2 m/s 760 mmHg 87%
    01:00 +25°C° 0.1 mm 2 m/s 760 mmHg 88%
    02:00 +25°C° 0.3 mm 2 m/s 760 mmHg 88%
    03:00 +25°C° 0.3 mm 2 m/s 759 mmHg 89%
    04:00 +25°C° 0.3 mm 2 m/s 759 mmHg 89%
    05:00 +25°C° 0.3 mm 1 m/s 759 mmHg 89%
    06:00 +25°C° 0.3 mm 1 m/s 759 mmHg 89%
    07:00 +25°C° 0.3 mm 1 m/s 759 mmHg 89%
    08:00 +26°C° 0.1 mm 1 m/s 760 mmHg 85%
    09:00 +27°C° 0.1 mm 1 m/s 760 mmHg 81%
    10:00 +28°C° 0.1 mm 2 m/s 760 mmHg 77%
    11:00 +29°C° 0.1 mm 2 m/s 760 mmHg 72%
    12:00 +29°C° 0.1 mm 2 m/s 760 mmHg 68%
    13:00 +30°C° 0.1 mm 3 m/s 759 mmHg 63%
    14:00 +30°C° 0 mm 3 m/s 759 mmHg 65%
    15:00 +29°C° 0 mm 3 m/s 759 mmHg 68%
    16:00 +29°C° 0 mm 3 m/s 758 mmHg 70%
    17:00 +28°C° 0.1 mm 3 m/s 758 mmHg 75%
    18:00 +27°C° 0.1 mm 3 m/s 759 mmHg 80%
    19:00 +26°C° 0.1 mm 3 m/s 759 mmHg 84%
    20:00 +26°C° 0.1 mm 3 m/s 759 mmHg 85%
    21:00 +26°C° 0.1 mm 2 m/s 760 mmHg 86%
    22:00 +26°C° 0.1 mm 2 m/s 760 mmHg 87%
    23:00 +26°C° 0.1 mm 2 m/s 760 mmHg 87%

    10 Iunie, Miercuri

    Timp Temperatura Precipitaţii Vânt Presiune Umiditate
    00:00 +26°C° 0.1 mm 2 m/s 760 mmHg 88%
    01:00 +25°C° 0.1 mm 2 m/s 759 mmHg 88%
    02:00 +25°C° 0.1 mm 2 m/s 759 mmHg 89%
    03:00 +25°C° 0.1 mm 2 m/s 759 mmHg 89%
    04:00 +25°C° 0.1 mm 2 m/s 758 mmHg 89%
    05:00 +25°C° 0.1 mm 2 m/s 759 mmHg 90%
    06:00 +25°C° 0.1 mm 2 m/s 759 mmHg 90%
    07:00 +25°C° 0.1 mm 2 m/s 759 mmHg 90%
    08:00 +26°C° 0.2 mm 2 m/s 760 mmHg 86%
    09:00 +27°C° 0.2 mm 2 m/s 760 mmHg 83%
    10:00 +28°C° 0.2 mm 2 m/s 760 mmHg 80%
    11:00 +29°C° 0.3 mm 3 m/s 760 mmHg 78%
    12:00 +29°C° 0.3 mm 3 m/s 760 mmHg 76%
    13:00 +29°C° 0.3 mm 3 m/s 759 mmHg 75%
    14:00 +29°C° 0.2 mm 3 m/s 759 mmHg 75%
    15:00 +29°C° 0.2 mm 4 m/s 758 mmHg 75%
    16:00 +29°C° 0.2 mm 4 m/s 758 mmHg 75%
    17:00 +28°C° 0.1 mm 3 m/s 758 mmHg 79%
    18:00 +27°C° 0.1 mm 3 m/s 759 mmHg 83%
    19:00 +26°C° 0.1 mm 3 m/s 759 mmHg 86%
    20:00 +26°C° 0 mm 3 m/s 759 mmHg 87%
    21:00 +26°C° 0 mm 2 m/s 760 mmHg 88%
    22:00 +26°C° 0 mm 2 m/s 760 mmHg 88%
    23:00 +26°C° 0.2 mm 2 m/s 760 mmHg 88%
    Arată mai mult